Location: Pedholt
(56.0260°N, 10.2097°E)
Time: 20:44:36
(UTC+00:00)

Tiros 1 - Pass Details

Date: 09 August 2021
Orbit: 630 x 663 km, 48.4° (Epoch: 19 September)

Event Time Altitude Azimuth Distance (km) Brightness Sun altitude
Rises 16:25:07 0° 245° (WSW) 2,991 11.8 21.2°
Reaches altitude 10° 16:27:39 10° 236° (SW) 2,077 10.9 20.9°
Maximum altitude 16:31:54 32° 174° (S) 1,122 8.5 20.3°
Drops below altitude 10° 16:36:08 10° 111° (ESE) 2,065 9.3 19.7°
Sets 16:38:39 0° 102° (ESE) 2,971 10.0 19.3°
